User: anonymous   Login
Location: Unspecified
(0.0000°N, 0.0000°E)
Time: 10:06:27
(UTC+00:00)
Language:

STARLINK-11652 [DTC] - Orbit

View from above orbital plane
View from above orbital plane
View from above satellite
View from above satellite

Ground track
Ground track

The orbit is defined by the following mean orbital elements,

1 63315U          26145.40729111 +.00000000 +00000-0 +18815-2 0 00009
2 63315  43.0012 162.0703 0001428 262.8577  97.2128 15.70828581    05
Epoch (UTC): 25 May 2026 09:46:29
Eccentricity: 0.0001428
inclination: 43.0012°
perigee height: 356 km
apogee height: 357 km
right ascension of ascending node: 162.0703°
argument of perigee: 262.8577°
revolutions per day: 15.70828581
mean anomaly at epoch: 97.2128°

The dashed part of the orbit path shows where the satellite is in the earth's shadow,  

DLR